• Join FlightAware (Why Join?)
  • Login
  • US Flag 
09:57AM EDT


 

Airport Tracker/Info


-or-


 

Live Flight TrackerFlight Track Log ✈ CTL78 ✈ 12-Jul-2013 ✈ KYIP - KBKL

Flight Track Log - Related Links

Times and Time Zones

All times are in EDT time to prevent confusion due to time zone crossing. See the CTL78 flight status page for this flight to view local times or setup timezone preferences in your user account.

Time Position Orientation Groundspeed Altitude Reporting Facility
EDT Latitude Longitude Course Direction KTS MPH feet Rate Location/Type
10:01PM 41.8822 -83.0125 117° Southeast 149 171 5,100  Level Cleveland Center
10:02PM 41.8644 -82.9558 113° Southeast 157 181 5,000  Descending Cleveland Center
10:03PM 41.8469 -82.8994 113° Southeast 152 175 5,100  Climbing Cleveland Center
10:04PM 41.8356 -82.8433 105° East 154 177 5,100  Level Cleveland Center
10:05PM 41.8178 -82.7925 115° Southeast 156 180 5,100  Level Cleveland Center
10:06PM 41.9016 -82.6519 117° Southeast  Level Estimated
10:06PM 41.8042 -82.7392 109° East 153 176 5,100  Level Cleveland Center
10:07PM 41.7928 -82.6831 105° East 155 178 5,000  Descending Cleveland Center
10:08PM 41.7769 -82.6297 112° Southeast 157 181 5,100  Climbing Cleveland Center
10:09PM 41.7611 -82.5792 113° Southeast 156 180 5,100  Level Cleveland Center
10:10PM 41.7433 -82.5200 112° Southeast 158 182 5,100  Level Cleveland Center
10:11PM 41.7297 -82.4667 109° East 159 183 5,100  Level Cleveland Center
10:12PM 41.7139 -82.4133 112° Southeast 159 183 5,100  Level Cleveland Center
10:13PM 41.6961 -82.3517 111° Southeast 161 185 5,100  Level Cleveland Center
10:14PM 41.6803 -82.2986 112° Southeast 161 185 5,100  Level Cleveland Center
10:15PM 41.6644 -82.2425 111° Southeast 162 186 5,100  Level Cleveland Center
10:16PM 41.6486 -82.1836 110° East 165 190 5,100 -240 Level Cleveland Center
10:17PM 41.6347 -82.1306 109° East 168 193 4,700 -540 Descending Cleveland Center
10:18PM 41.6189 -82.0664 108° East 180 207 4,100 -600 Descending Cleveland Center
10:19PM 41.6008 -82.0047 111° Southeast 175 201 3,600 -600 Descending Cleveland Center
10:20PM 41.5828 -81.9461 112° Southeast 170 196 3,000 -600 Descending Cleveland Center
10:21PM 41.5628 -81.8847 114° Southeast 171 197 2,400 -600 Descending Cleveland Center
10:22PM 41.5425 -81.8289 116° Southeast 167 192 1,800 -480 Descending Cleveland Center
10:23PM 41.5244 -81.7731 113° Southeast 135 155 1,500 -300 Descending Cleveland Center
10:24PM 41.5122 -81.7311 111° Southeast 121 139 1,300 -240 Descending Cleveland Center